Tracking 19280 objects as of 13-Nov-2018
HD Live streaming from Space Station
objects crossing your sky now

AMC-5 (GE-5)

Track AMC-5 (GE-5) now!
AMC-5 (GE-5) is classified as:


NORAD ID: 25516
Int'l Code: 1998-063B
Perigee: 36,043.7 km
Apogee: 36,075.1 km
Inclination: 6.3 °
Period: 1,449.7 minutes
Semi major axis: 42430 km
RCS: 9.3322 m2 (large)
Launch date: October 28, 1998
Source: SOCIETE EUROPEENNE DES SATELLITES (SES)
Launch site: FRENCH GUIANA (FRGUI)

Broadband internet, business television; 16 Ku-band; CONUS
aabbcc
Your satellite tracking list
Your tracking list is empty




NASA's NSSDC Master Catalog

Two Line Element Set (TLE):
1 25516U 98063B   18316.72136858 -.00000191 +00000-0 +00000-0 0  9996
2 25516 006.2887 057.7875 0003692 247.8451 114.1573 00.99331609073284
Source of the keplerian elements: AFSPC